Location: La Pernelle
(49.6188°N, 1.2999°W)
Time: 09:28:57
(UTC+00:00)

Cosmos 220 Rocket - Pass Details

Date: 12 June 2021
Orbit: 574 x 616 km, 74.0° (Epoch: 03 August)

Event Time Altitude Azimuth Distance (km) Brightness Sun altitude
Rises 21:34:11 0° 200° (SSW) 2,833 7.1 -9.8°
Reaches altitude 10° 21:36:24 10° 200° (SSW) 1,929 6.3 -10.0°
Maximum altitude 21:40:43 86° 112° (ESE) 599 3.9 -10.4°
Drops below altitude 10° 21:45:00 10° 24° (NNE) 1,918 7.1 -10.8°
Sets 21:47:13 0° 24° (NNE) 2,817 7.9 -11.0°
